Wind_Speed
23 23 23 22 22 21 21 20 20 20 20 20 20 21 21 22 22 22 21 20 19 19 18 18 17 17 17 17 17 17 17 17 17 18 18 17 16 14 12 11 9 8 7 7 7 8 10 10 10 9 9 9 9 9 8 8 8 8 9 9 8 9 9 11 12 13 15 16 18 20 21 22 22 23 23 24 25 25 26 27 27 27 27 27 27
24 23 23 22 22 22 22 22 21 21 20 20 20 21 21 22 23 23 22 21 21 20 19 19 19 19 18 18 18 18 18 18 18 18 19 19 17 16 14 12 11 10 9 9 8 9 11 11 10 10 10 10 10 10 10 10 10 10 10 11 11 11 11 12 13 14 16 17 18 20 22 24 24 25 25 25 26 26 27 28 29 30 30 30 29
25 24 24 23 22 23 23 22 22 22 21 20 21 21 22 23 24 23 23 23 22 21 20 20 20 20 20 20 20 20 20 20 19 19 20 21 19 17 16 15 13 12 11 10 10 10 11 11 10 10 10 11 12 13 13 13 12 12 12 12 13 14 14 15 15 16 17 18 19 20 22 24 25 25 26 26 27 27 28 29 30 32 32 32 32
27 25 24 23 23 23 22 23 23 22 21 21 21 22 23 24 25 24 24 24 22 21 21 21 21 21 21 21 21 20 20 21 21 21 22 22 21 19 18 17 15 14 12 12 11 10 11 11 10 11 12 13 15 16 16 16 15 15 15 15 15 16 17 16 16 18 19 20 20 20 21 23 24 25 26 26 27 28 29 31 32 33 34 34 34
27 25 24 24 23 21 22 23 22 21 20 20 21 23 24 25 25 26 25 25 24 23 23 22 22 22 22 22 22 21 22 22 23 23 23 24 23 21 20 19 18 16 14 13 12 11 11 11 11 12 14 16 17 18 18 17 16 17 17 17 17 17 17 16 16 19 21 22 22 22 22 23 25 26 26 27 28 29 30 32 33 35 36 36 35
26 25 25 24 22 20 21 22 21 20 20 20 21 23 24 24 25 26 26 26 25 25 24 24 23 23 24 24 23 22 23 23 24 25 25 25 24 22 21 21 20 18 16 15 13 12 11 11 12 13 15 17 18 19 18 15 14 15 15 14 14 15 15 16 18 20 23 24 24 24 24 25 26 27 28 28 29 30 31 33 34 36 36 37 36
26 25 25 24 21 20 21 21 21 20 20 21 21 22 23 24 24 25 25 25 25 25 24 24 24 24 25 25 24 23 23 24 25 26 26 25 24 23 22 22 22 20 18 17 15 14 13 12 12 14 15 17 18 17 14 12 12 13 12 12 13 14 16 19 21 24 25 25 25 26 26 27 28 29 30 30 30 30 32 33 35 36 36 36 36
26 24 25 24 21 20 21 21 22 21 21 21 21 21 21 21 21 22 23 23 23 23 23 23 23 23 24 23 22 22 22 23 24 26 26 25 24 24 23 23 24 23 21 19 18 16 14 13 13 15 16 16 16 15 12 11 11 12 12 13 14 16 18 21 24 26 27 28 28 28 28 29 30 32 33 33 32 32 32 33 34 35 35 35 34
25 24 24 22 20 20 22 23 23 22 21 20 19 18 18 18 19 19 20 20 20 20 21 21 20 21 21 20 19 19 20 21 23 24 26 26 25 25 25 25 25 25 23 22 20 18 16 14 14 15 16 17 17 14 12 11 11 12 13 15 16 19 21 23 25 28 29 29 29 30 30 31 32 33 34 35 34 33 33 33 33 33 34 33 33
25 24 23 21 20 22 24 24 24 22 20 19 18 17 17 17 16 16 16 16 16 16 16 16 16 16 17 17 17 17 17 18 20 23 25 26 26 26 25 25 26 26 25 24 23 21 18 16 15 15 16 18 18 16 13 12 12 12 14 16 18 20 22 24 26 27 28 29 30 31 32 33 34 35 35 35 35 34 34 34 34 34 34 34 33
24 23 21 21 22 23 24 24 23 21 20 19 18 16 15 14 13 13 12 12 11 10 10 10 11 12 14 15 17 17 17 17 20 23 25 26 26 26 26 26 27 27 26 26 26 24 22 19 18 17 17 18 20 18 15 13 13 14 15 17 19 21 22 24 26 27 28 29 30 31 33 34 35 36 36 36 35 35 34 34 35 35 35 35 35
25 23 22 23 24 24 24 24 23 21 20 20 18 17 16 14 13 12 11 10 9 8 7 6 7 8 10 13 15 16 17 18 20 22 25 26 26 27 26 27 28 28 27 27 27 27 24 22 21 20 19 19 20 20 18 15 15 16 16 18 20 21 23 24 27 28 28 29 30 31 33 34 36 36 36 36 36 35 35 35 35 36 37 36 36
27 25 25 25 25 24 24 24 23 22 21 21 20 19 18 16 14 13 12 12 10 8 7 7 7 7 8 10 12 14 16 17 19 22 24 26 27 28 28 27 28 29 29 28 29 29 26 25 24 23 22 21 21 21 20 19 17 17 18 19 21 23 24 26 28 30 30 31 31 32 34 35 36 36 36 36 36 36 35 35 36 37 37 37 37
27 27 26 26 26 26 26 24 23 22 22 22 22 21 20 18 17 16 15 14 12 9 9 10 10 9 10 10 11 12 13 14 16 20 23 26 27 29 30 30 30 30 30 30 31 30 28 27 27 27 25 24 23 22 22 22 20 19 20 21 24 25 27 28 30 32 33 33 33 34 35 36 37 37 37 36 37 36 35 35 36 37 38 38 38
24 25 26 27 28 28 27 25 24 24 24 24 23 22 21 19 18 17 16 15 13 12 13 13 13 13 13 13 13 13 14 15 16 19 21 24 26 29 31 32 31 31 32 32 32 32 30 29 30 30 29 27 25 25 25 24 23 22 22 24 26 27 29 31 32 33 34 35 35 36 36 37 38 38 38 37 37 36 36 35 36 37 39 39 39
22 23 25 27 28 29 28 27 26 25 25 25 24 23 22 20 19 19 18 17 16 17 18 18 18 19 18 18 18 17 18 19 20 21 23 24 26 28 29 30 31 31 32 33 33 33 31 32 33 33 32 29 27 28 28 27 26 25 24 27 29 30 30 33 34 34 34 36 37 38 38 38 39 39 38 38 38 37 36 36 36 38 39 40 41
21 21 22 26 28 29 29 28 27 26 26 26 25 24 23 22 22 22 21 21 20 20 22 23 25 25 25 25 24 23 24 24 25 26 28 29 30 30 30 31 32 32 32 32 33 34 33 33 35 36 34 32 30 31 31 31 29 28 27 28 31 32 33 34 35 35 35 36 37 39 40 39 40 40 40 39 38 37 37 37 37 38 40 41 42
22 20 20 24 28 28 28 28 27 27 27 26 26 26 26 25 25 25 25 24 24 25 26 27 29 30 30 31 31 30 30 30 30 31 33 34 35 35 35 36 36 35 34 32 33 34 34 35 37 38 37 34 34 35 35 34 32 31 31 31 33 35 36 38 37 36 37 38 38 39 41 40 40 41 41 40 39 38 38 37 38 39 41 42 43
24 22 21 23 26 27 28 28 28 27 27 28 28 29 29 28 28 29 29 29 29 30 31 31 31 32 34 35 36 36 36 35 35 35 36 37 38 39 40 41 40 39 38 36 35 35 36 37 38 40 40 38 36 37 39 38 36 35 34 34 35 36 39 41 40 38 39 41 40 41 41 41 41 41 42 41 39 38 38 38 39 40 41 42 43
27 26 25 25 26 28 29 29 28 28 29 29 31 31 31 31 32 33 34 34 35 35 35 34 33 34 35 37 38 38 38 39 38 38 39 40 42 44 45 45 44 43 43 42 41 40 39 39 40 42 43 41 40 40 42 43 40 38 37 37 37 38 41 43 43 41 41 42 43 43 43 42 42 42 43 42 41 39 39 38 39 40 41 42 43
29 29 28 28 28 29 30 30 29 30 31 32 33 33 33 34 36 37 37 38 38 38 37 37 37 36 37 38 38 38 39 41 42 41 41 42 44 46 48 48 49 50 49 48 46 46 44 43 43 44 45 45 44 44 46 47 45 42 39 39 40 42 44 46 46 44 44 45 46 46 45 43 43 43 43 43 42 40 39 39 40 41 42 42 43
29 29 30 30 30 30 31 31 30 32 34 34 34 35 37 39 40 40 39 39 39 40 40 41 41 41 41 42 42 41 41 43 44 42 41 42 43 45 46 48 51 54 55 54 52 51 49 47 47 47 47 48 48 47 48 50 48 45 42 42 44 45 46 48 48 47 47 47 47 48 47 45 45 44 44 44 42 40 39 39 40 41 42 42 43
31 31 32 33 32 32 32 32 32 34 36 36 36 37 38 38 39 39 39 38 38 39 41 42 44 44 45 46 46 45 45 44 43 42 40 40 41 42 44 47 50 53 55 55 55 55 53 52 52 51 51 52 52 50 51 52 50 47 46 46 48 48 49 51 51 51 50 50 50 50 49 48 47 45 45 44 43 41 39 39 40 41 42 42 42
33 33 34 35 35 35 35 35 35 37 39 39 39 36 33 33 34 35 36 37 37 38 38 40 41 42 42 44 45 46 46 46 45 44 44 43 43 44 45 47 50 53 53 52 53 54 54 54 56 56 56 57 57 55 54 53 51 51 50 49 50 52 53 53 54 54 54 53 53 53 51 50 50 47 45 45 43 41 39 39 40 41 42 42 42
34 36 37 37 38 38 38 37 37 37 38 39 38 35 33 34 35 35 37 38 39 40 40 40 41 42 43 45 46 47 48 49 49 49 48 48 49 48 47 48 50 54 55 54 54 56 56 56 56 57 58 61 61 60 58 53 51 52 53 53 53 55 55 55 56 56 57 56 57 57 54 52 51 49 46 45 43 40 39 40 40 41 41 41 41
38 39 39 39 40 41 41 40 39 39 39 38 37 36 36 37 38 39 40 41 41 42 43 44 46 47 48 50 50 50 51 51 51 52 52 52 52 52 51 50 52 54 56 57 58 60 62 61 59 58 59 61 62 62 60 58 55 55 54 55 55 55 56 57 58 59 59 59 59 59 57 54 52 49 46 45 43 40 39 40 40 40 40 40 40
40 41 40 41 42 43 43 43 42 40 40 39 38 39 40 41 41 43 44 43 44 45 46 48 50 51 53 53 54 54 54 53 53 54 54 54 53 53 53 53 54 55 57 59 61 63 65 64 62 59 60 62 62 61 59 58 58 57 56 56 56 56 58 59 59 59 60 60 60 60 58 56 53 49 46 44 42 40 39 40 40 39 39 39 39
42 42 42 42 42 43 43 42 41 41 40 41 41 42 43 45 46 46 46 46 47 48 49 51 52 53 54 56 56 56 56 54 54 55 56 56 55 56 56 56 57 58 59 61 65 67 68 68 66 63 62 63 64 62 60 57 57 57 58 58 58 59 59 59 59 59 59 59 60 60 58 56 53 49 46 44 42 40 39 39 39 38 38 38 38
42 42 42 42 42 42 42 42 43 43 43 44 45 46 47 48 48 47 47 48 49 50 51 52 52 54 55 56 57 57 57 56 56 58 59 59 59 60 60 60 61 62 63 64 67 69 69 68 67 67 66 64 63 63 62 60 57 58 60 62 61 60 59 60 61 61 58 57 58 57 56 55 54 50 46 43 41 39 39 39 38 37 37 37 37
43 43 43 43 44 44 44 45 45 46 47 48 48 48 48 48 48 48 48 49 50 51 52 53 54 56 57 58 58 59 59 58 58 61 63 63 63 63 63 63 64 66 67 68 71 73 73 70 68 68 67 66 64 65 65 64 62 61 63 66 65 62 60 62 63 62 58 56 56 56 55 55 54 49 45 43 41 39 38 38 37 36 37 36 35
46 45 45 46 46 46 47 48 49 49 49 49 48 47 47 47 48 49 50 51 52 53 55 56 57 59 59 59 59 60 60 60 61 63 66 67 67 66 65 65 66 68 69 71 74 77 78 76 73 72 71 69 68 67 65 66 66 66 65 64 65 64 64 65 64 60 57 57 58 57 57 56 53 48 44 42 40 38 38 37 35 35 35 35 34
49 49 49 49 50 50 50 50 50 49 48 47 47 47 48 48 50 51 52 53 54 55 56 57 58 59 60 60 59 59 60 62 64 66 68 69 69 68 67 66 66 68 70 73 76 79 80 80 78 77 75 72 72 70 67 66 66 66 64 64 65 66 67 68 65 58 54 55 58 59 58 56 52 47 44 41 39 38 37 35 34 34 34 34 33
48 48 49 49 49 49 48 48 48 48 47 48 49 50 51 52 53 54 55 56 56 56 56 56 57 58 59 60 60 60 60 62 65 67 68 69 69 68 68 68 68 69 71 75 78 80 82 82 81 79 76 73 72 71 70 69 67 64 62 61 64 67 68 69 67 59 51 50 52 54 54 52 48 45 43 41 38 37 36 33 33 33 33 33 32
44 45 45 45 45 46 47 47 48 48 49 50 51 52 53 55 56 56 57 57 56 56 56 57 58 58 59 60 61 61 61 61 63 65 67 66 66 67 67 69 69 70 73 76 79 81 81 80 81 79 73 68 68 69 70 71 69 65 60 59 61 64 66 66 64 57 50 47 48 49 49 47 44 43 42 40 37 36 34 32 32 32 32 32 31
45 44 45 45 45 46 47 48 49 51 52 53 54 56 56 57 57 58 58 57 57 57 57 57 57 58 59 60 60 61 61 60 62 65 66 66 66 66 67 68 68 68 71 75 78 81 81 78 78 78 72 65 63 64 64 65 65 64 62 60 59 61 64 65 62 58 54 49 45 44 46 45 43 43 41 38 36 35 32 31 31 31 31 31 31
47 46 46 46 47 48 49 50 52 53 55 57 57 58 58 58 58 58 57 57 57 57 57 57 57 57 59 60 60 61 61 61 63 67 69 68 66 66 67 68 68 69 71 74 76 78 79 77 76 76 74 68 64 62 60 59 59 59 60 59 58 58 61 65 64 60 56 50 44 42 43 43 42 42 40 37 34 33 31 30 31 30 30 30 30
48 48 48 48 49 51 52 53 54 56 57 59 59 59 59 58 58 58 57 56 56 57 57 57 57 57 58 59 59 60 61 62 64 68 68 67 66 66 66 65 66 68 71 74 75 72 72 74 72 69 68 68 67 66 63 58 52 49 51 53 54 56 60 64 62 55 49 44 41 41 41 41 41 41 38 35 33 31 30 29 30 30 29 30 30
49 49 49 50 51 52 54 55 56 57 57 58 58 58 58 58 58 57 56 56 56 56 56 57 57 57 58 58 59 60 61 62 64 66 65 63 63 61 60 61 64 64 60 61 63 59 57 61 64 62 61 64 66 67 64 59 52 47 46 45 47 51 58 60 56 49 43 41 41 42 41 40 40 39 36 33 31 30 29 29 29 29 29 29 29
50 51 52 53 53 54 54 54 54 53 53 54 55 55 57 57 57 56 56 56 56 56 56 56 57 57 58 58 59 60 61 62 64 65 64 62 60 58 58 55 50 44 36 33 39 41 41 45 49 51 53 56 59 61 62 64 63 60 55 51 48 50 53 54 50 45 43 43 44 44 42 40 39 37 34 31 30 29 28 29 29 28 28 28 28
52 52 52 53 53 53 52 51 51 52 53 53 54 54 55 55 54 54 54 54 54 54 55 55 56 56 58 58 58 59 59 59 61 61 59 57 55 54 51 40 23 15 17 18 22 27 31 36 40 43 47 50 52 52 54 57 59 60 59 57 53 49 48 50 48 44 43 44 45 43 40 38 37 35 32 30 29 28 28 28 28 28 27 27 28
52 51 52 52 52 52 52 52 52 53 53 53 53 53 53 53 53 53 53 53 53 53 53 53 53 54 55 55 55 56 55 55 56 56 52 49 47 46 42 31 15 11 13 19 26 28 29 33 39 44 48 48 47 48 48 49 51 52 53 53 50 46 44 45 45 44 44 44 41 39 37 36 34 32 30 29 28 28 28 28 28 27 26 26 27
52 52 52 52 52 53 53 53 54 54 54 54 53 53 52 52 52 52 52 51 52 51 51 51 50 51 52 52 53 53 52 52 53 52 47 44 42 39 36 31 25 22 21 25 33 36 36 37 41 46 48 48 49 49 46 44 44 43 43 44 45 44 42 40 40 42 43 41 38 36 35 33 31 30 30 29 28 28 28 28 27 27 26 26 27
52 51 51 51 52 52 53 53 53 53 53 53 53 53 52 51 51 51 51 51 51 51 51 51 50 50 51 52 52 52 51 49 50 49 45 40 38 36 33 30 29 28 25 25 29 33 35 36 39 41 42 42 41 38 34 32 33 35 38 41 42 42 39 37 38 39 38 36 35 35 33 31 30 31 30 29 28 28 28 27 27 27 26 26 27
51 50 49 50 51 51 51 51 50 48 48 49 50 50 50 50 50 50 50 51 51 51 51 52 52 51 52 53 52 50 49 47 46 46 43 38 35 34 32 30 30 30 29 28 28 30 33 33 33 32 31 31 31 30 29 29 30 31 33 35 36 36 35 36 37 36 34 34 35 34 31 30 31 31 30 28 28 28 27 27 27 26 25 26 26
51 51 51 51 50 50 50 49 47 45 45 46 46 47 48 49 50 50 51 51 51 52 51 52 52 51 51 51 50 49 47 45 43 42 40 38 35 33 32 31 29 29 29 27 26 27 27 27 25 25 25 26 27 28 28 28 27 27 28 29 31 33 35 36 35 34 34 35 35 32 30 31 32 32 30 28 28 27 27 27 27 26 25 26 26
52 52 52 50 49 48 47 46 46 45 45 46 46 46 47 47 48 50 50 50 51 51 50 49 49 49 47 47 47 46 44 43 41 39 38 38 36 35 33 32 31 29 28 28 27 25 24 23 21 21 22 23 24 26 27 28 29 29 29 30 31 34 36 36 36 35 36 35 32 30 30 32 32 31 29 28 27 27 27 27 26 26 25 25 26
52 51 49 47 46 45 43 43 43 44 45 45 46 46 46 47 47 47 48 48 48 47 46 45 45 44 43 43 43 43 42 41 40 38 37 36 37 36 35 34 34 31 30 29 29 28 27 26 24 24 24 26 27 29 30 30 31 31 31 32 33 35 37 37 37 36 35 33 30 30 32 33 32 30 29 28 27 27 27 27 27 26 25 25 26
49 48 47 45 43 42 41 41 41 41 42 43 43 43 44 44 44 44 45 44 44 43 42 41 40 40 41 41 41 41 41 40 39 37 36 35 35 35 34 34 34 34 33 32 31 31 30 29 29 28 29 30 30 31 31 31 31 32 33 35 36 37 38 38 37 35 33 31 30 31 32 32 31 29 29 28 28 27 27 27 27 26 25 26 27
47 46 45 43 42 42 41 41 40 40 40 40 40 41 41 41 41 41 41 41 41 40 38 37 37 37 38 39 39 39 40 39 39 38 36 35 34 34 33 33 33 34 35 34 32 31 31 31 30 30 31 31 32 32 32 32 32 32 33 34 35 35 35 34 33 32 30 30 30 31 32 31 30 29 29 28 28 28 28 28 27 26 26 26 27
45 44 44 43 42 41 41 41 40 40 39 39 39 39 39 39 39 39 39 38 38 37 36 35 34 34 35 36 36 36 36 37 37 36 35 33 32 33 33 31 29 29 31 32 31 31 30 30 30 31 32 32 33 33 33 32 32 32 33 33 33 33 32 31 30 30 29 30 31 31 31 31 30 29 29 29 28 28 28 28 28 28 27 27 28
44 44 43 43 42 41 41 40 40 39 39 38 38 38 38 38 38 38 37 37 37 37 36 35 35 34 34 35 34 33 33 34 34 33 32 31 30 30 31 29 26 25 26 28 29 30 30 31 32 32 32 33 33 33 33 33 33 33 33 34 33 33 32 31 31 30 30 31 31 31 31 30 30 30 29 29 29 29 29 29 29 28 28 28 29
Wind_Direction
228 230 232 233 233 235 237 240 242 243 244 244 243 242 243 243 243 243 244 245 246 248 247 247 250 255 261 269 276 280 276 266 259 257 258 261 262 260 258 259 259 265 279 298 317 332 339 344 347 348 346 345 340 335 331 327 324 319 317 318 318 318 319 320 320 318 316 314 313 314 314 314 316 317 316 314 312 310 309 309 309 308 305 302 299
230 234 237 238 238 239 239 239 241 244 246 248 249 249 248 247 247 247 248 247 246 247 247 248 250 253 260 267 273 277 273 264 258 256 256 258 260 258 255 253 254 261 275 290 307 323 334 341 346 348 344 338 332 327 323 321 321 319 318 318 318 317 317 316 315 313 312 311 311 311 312 313 314 315 315 313 312 310 308 309 311 310 307 304 300
229 232 235 238 240 242 241 241 241 243 245 247 251 253 253 251 250 250 250 249 248 248 248 249 250 253 259 265 271 274 271 263 256 254 254 255 258 257 253 251 250 256 269 284 299 314 325 332 342 345 340 336 333 327 317 309 306 308 310 312 314 315 315 315 314 312 310 309 309 309 310 311 312 312 312 311 311 310 309 309 311 311 308 305 301
231 230 232 235 238 241 241 240 240 242 244 246 249 251 253 253 253 252 251 250 250 249 249 250 251 254 259 264 269 270 267 261 255 252 251 252 256 257 254 251 250 253 264 278 291 305 315 322 331 334 330 333 335 330 320 309 302 302 302 301 304 305 305 308 310 310 308 307 307 307 307 308 309 309 309 309 309 308 307 307 309 309 307 305 302
236 234 233 235 238 240 240 240 241 243 246 248 248 249 250 252 253 253 253 252 251 250 251 251 252 255 259 262 265 265 262 258 254 251 248 249 254 257 256 254 252 253 260 271 283 294 304 312 320 324 324 329 333 333 327 319 313 311 308 305 306 306 303 303 306 306 305 304 305 307 307 308 308 308 308 308 307 307 307 306 306 307 307 306 303
240 237 236 238 239 241 242 242 243 245 247 247 248 249 249 250 252 253 254 254 254 253 253 253 253 255 258 260 261 260 258 255 253 251 248 248 253 257 258 257 256 255 258 265 275 283 294 305 314 318 321 327 333 337 338 335 333 332 326 320 321 321 314 309 307 304 303 303 305 306 308 309 309 309 309 309 309 309 309 308 308 308 308 307 305
241 239 239 239 240 242 244 245 245 247 248 248 248 249 250 249 250 252 254 255 255 255 254 254 255 255 256 258 257 256 254 253 253 252 249 248 252 257 259 258 258 258 258 262 269 276 286 298 307 311 315 322 331 340 350 354 352 350 347 340 334 328 320 314 310 307 307 307 307 308 309 310 311 311 311 312 312 312 312 311 310 310 309 308 307
241 239 240 241 240 241 243 243 245 247 249 251 252 252 252 251 250 251 252 253 253 253 252 253 253 252 252 253 252 252 252 252 252 252 250 249 252 257 259 259 260 260 259 261 266 272 281 291 299 303 308 314 322 333 346 350 346 343 342 338 332 326 321 317 313 312 312 312 312 312 313 314 313 313 313 314 315 315 315 314 312 311 311 310 310
243 242 243 242 239 239 240 240 242 246 249 252 251 251 250 248 246 246 247 248 248 248 248 249 248 246 245 245 245 248 250 252 253 253 252 250 251 256 260 260 260 261 261 261 263 268 275 284 291 294 299 304 309 318 330 335 335 334 332 330 328 325 324 322 319 318 317 317 317 317 317 316 315 314 314 315 317 318 318 317 315 314 314 314 313
246 246 245 241 237 237 239 239 242 246 248 248 246 246 244 242 240 238 237 237 238 239 240 241 241 240 240 240 241 244 247 251 253 253 253 252 251 255 261 263 262 262 263 262 262 264 269 276 283 286 290 295 299 306 317 323 326 328 327 327 326 325 325 325 324 322 320 320 320 320 319 317 316 314 314 316 318 318 318 317 316 316 316 315 315
250 248 244 238 235 237 239 240 243 246 247 245 244 243 238 232 227 223 220 219 220 222 226 229 234 236 238 242 244 246 248 250 252 252 253 252 253 256 262 265 265 265 265 264 263 263 265 270 276 279 284 287 291 297 305 312 316 319 321 323 324 323 323 323 323 322 322 322 322 321 319 317 316 315 315 317 317 317 316 315 315 316 317 316 315
252 250 245 240 238 238 238 239 242 245 245 244 242 238 232 225 220 216 213 210 212 213 211 218 228 235 240 245 249 251 252 252 252 252 253 253 254 257 262 266 268 268 268 267 265 264 264 267 271 276 279 281 284 290 296 302 308 311 314 317 319 319 319 321 321 320 322 323 323 322 320 318 317 316 317 317 316 315 313 314 315 315 316 316 315
250 248 245 243 240 237 236 236 239 241 243 242 240 237 233 227 222 219 216 216 219 216 212 218 227 236 242 247 253 256 256 255 255 254 254 254 256 258 263 267 269 270 270 269 267 266 265 266 268 272 276 277 279 284 289 294 299 304 308 310 313 314 315 318 318 318 320 322 322 322 321 320 319 318 318 317 315 313 312 313 314 315 316 316 315
247 246 244 241 236 232 232 233 236 239 240 239 238 237 235 230 226 225 225 228 232 229 227 231 235 239 243 245 251 260 265 264 261 258 257 257 258 261 264 267 268 270 271 269 268 268 268 267 267 270 272 274 276 278 282 287 292 297 302 305 307 308 311 313 314 315 318 319 320 321 322 321 321 320 318 316 314 313 312 313 314 315 316 317 316
251 249 246 241 235 231 230 231 234 237 237 237 236 235 235 232 231 232 235 239 243 246 248 249 248 248 249 248 249 257 268 272 271 268 266 263 262 262 264 267 268 269 269 269 269 269 269 268 268 268 269 272 274 275 276 280 285 290 296 299 301 303 306 308 309 311 315 317 317 318 320 321 321 320 318 316 314 312 312 313 314 315 316 316 314
259 254 248 243 239 235 233 233 234 236 236 235 235 235 237 237 237 239 242 244 248 253 259 262 263 262 260 256 253 256 263 268 270 271 272 271 270 269 270 271 271 270 269 268 268 268 268 268 268 269 269 270 273 274 274 277 281 285 290 294 296 298 300 302 304 307 311 313 314 316 317 318 319 319 317 316 313 312 312 313 314 315 315 315 313
261 259 252 246 242 238 234 233 234 236 236 237 237 238 240 241 243 245 247 249 252 255 259 263 266 266 265 262 260 259 260 263 266 268 270 271 272 273 275 275 275 273 272 270 269 269 269 268 268 269 269 270 271 273 274 276 278 281 285 288 291 294 296 296 298 303 307 308 310 313 313 314 316 317 317 315 313 312 312 313 314 315 314 314 315
258 261 256 248 241 237 235 233 234 235 238 239 240 241 242 243 246 248 251 253 254 255 256 258 259 262 263 265 265 262 260 259 260 262 265 268 269 271 273 274 274 275 275 273 272 272 271 269 268 268 269 270 270 271 273 274 276 278 281 284 287 291 293 292 294 298 303 304 307 309 310 311 312 314 316 315 313 311 312 313 314 314 314 315 316
254 256 255 249 242 238 236 236 237 239 241 241 241 242 242 244 246 250 252 253 253 254 254 254 254 255 256 258 260 261 262 262 261 260 261 263 265 266 267 269 271 272 273 273 272 271 271 270 269 268 269 270 270 271 272 273 274 276 278 281 285 289 290 290 292 295 298 301 303 305 307 309 309 311 314 314 312 311 311 313 314 314 314 315 316
251 252 253 252 247 243 241 242 245 246 245 244 243 243 242 244 247 249 252 252 252 253 254 254 254 255 256 256 258 260 263 265 266 265 264 263 263 263 264 265 266 267 268 269 269 269 268 268 269 270 270 270 270 271 272 272 273 274 276 280 283 285 286 288 291 292 294 297 300 302 305 307 307 309 312 313 312 310 311 312 313 314 314 315 315
249 251 253 255 254 252 249 250 251 251 251 250 248 245 244 246 249 251 253 254 256 257 258 258 260 261 261 261 262 262 264 265 267 268 269 269 268 267 265 265 264 265 265 265 266 266 266 267 269 269 270 270 270 269 270 272 272 272 275 278 280 282 284 286 289 290 292 294 296 299 303 304 304 306 310 312 311 309 310 312 312 313 313 314 314
251 253 255 257 258 257 255 255 256 256 256 256 253 250 249 250 252 254 256 258 260 261 261 263 264 265 266 267 268 268 269 269 269 269 269 271 273 272 270 267 266 266 266 266 266 266 266 267 268 268 269 270 269 268 268 270 271 272 273 275 277 279 281 283 286 288 290 292 294 296 299 301 302 304 308 310 309 308 309 311 311 311 312 313 313
252 254 256 258 258 256 255 257 259 259 258 258 256 254 255 256 257 259 261 263 263 264 264 264 264 265 266 267 269 271 271 272 272 271 269 270 272 273 272 271 271 270 269 269 268 268 267 267 266 266 266 267 268 267 266 267 268 270 271 272 274 277 279 280 283 286 287 290 292 293 296 298 300 302 305 307 307 307 308 309 310 310 311 311 312
246 249 251 253 253 253 252 252 254 256 258 260 259 257 258 260 261 262 263 264 264 265 265 265 265 266 266 267 269 270 272 273 274 274 272 270 270 270 269 270 273 274 274 273 271 269 269 269 269 268 266 265 265 265 263 263 265 267 269 271 272 274 276 278 280 282 284 287 289 291 293 295 297 299 302 305 306 307 307 308 308 309 309 311 312
242 243 245 246 248 250 252 253 254 256 259 261 261 258 257 259 261 262 264 265 266 267 268 269 270 270 270 271 271 272 272 274 275 275 273 271 271 272 271 270 270 272 273 274 274 274 272 271 271 270 267 264 264 265 264 264 264 265 267 269 270 271 274 276 278 280 282 284 286 288 290 292 294 296 299 302 304 305 305 306 306 307 308 310 311
241 243 244 245 246 249 252 256 258 258 259 260 259 258 259 262 264 266 268 269 268 268 269 270 271 272 272 273 273 273 274 275 275 274 273 272 272 273 273 271 271 270 269 269 271 273 273 272 272 272 270 268 268 269 269 267 265 264 264 265 267 270 272 274 275 277 279 282 284 285 287 289 291 292 295 300 303 302 303 303 304 305 308 310 310
241 243 245 246 247 249 251 253 254 255 256 257 258 260 262 264 267 269 270 269 268 267 267 267 268 268 270 271 272 273 273 274 274 274 274 273 273 273 273 272 272 271 269 267 267 268 269 269 269 270 270 269 269 270 270 268 266 265 264 264 265 267 269 271 272 274 276 279 281 284 285 287 289 291 293 297 300 300 300 301 302 304 307 308 308
242 244 246 246 247 248 249 251 252 254 256 259 261 263 265 267 268 269 269 269 268 267 267 267 267 267 268 269 271 272 273 274 274 274 275 275 275 274 273 273 273 273 272 271 270 270 269 268 267 265 265 267 269 270 271 269 268 266 263 262 262 263 265 269 271 272 274 276 279 282 283 286 288 290 291 295 298 297 297 299 300 303 306 307 307
244 246 248 248 249 250 252 254 256 258 260 263 264 266 268 269 269 269 269 269 268 268 268 269 269 270 270 271 273 274 275 276 276 276 277 277 276 275 275 275 275 274 274 273 273 272 271 269 266 265 265 267 270 272 272 272 271 267 263 260 259 260 263 267 268 269 271 273 276 279 282 286 289 288 288 293 295 294 295 297 299 302 305 306 307
249 250 250 251 252 254 256 258 260 262 264 265 266 267 268 267 267 268 269 269 270 271 272 272 273 273 274 275 276 277 278 278 279 278 278 278 277 277 277 276 275 274 274 274 273 272 271 269 266 264 265 266 268 271 273 273 273 270 265 261 259 259 261 263 265 267 269 270 274 277 280 286 290 287 285 290 293 292 293 295 297 301 304 305 305
251 252 253 254 256 257 259 261 263 265 266 266 266 266 266 266 268 269 270 272 273 273 274 274 275 275 276 276 277 278 279 279 279 278 278 277 278 278 278 277 276 275 275 274 272 272 271 269 267 265 263 264 266 269 271 272 273 273 270 266 262 260 259 260 262 266 269 269 272 275 279 285 288 285 284 289 290 289 291 294 296 300 303 303 304
252 253 254 256 257 259 261 262 263 263 263 264 264 265 265 267 268 270 271 272 273 274 274 275 276 276 276 277 277 277 278 279 278 277 277 277 278 279 279 277 276 276 275 274 272 272 271 269 268 266 264 263 264 266 268 271 273 273 273 269 263 258 258 259 262 266 271 272 272 274 278 282 282 280 283 287 287 287 290 292 296 299 301 302 302
252 253 254 255 257 258 259 259 259 260 260 262 263 264 266 268 269 270 272 273 273 275 276 278 278 278 277 278 278 278 279 279 279 278 278 278 279 279 279 278 277 276 274 272 271 270 269 268 267 266 264 263 264 265 266 267 268 270 273 272 264 257 256 259 260 264 271 276 274 274 277 278 276 277 282 285 284 286 289 291 295 298 300 300 301
252 252 253 255 256 257 258 259 260 262 264 265 266 267 268 270 271 273 274 274 274 276 278 280 280 280 279 279 280 280 281 280 279 279 279 279 280 280 280 279 277 276 275 273 272 270 269 268 266 264 263 263 262 261 262 263 264 267 271 272 266 258 256 258 260 262 267 272 272 273 275 276 274 277 281 282 282 284 287 291 295 298 299 299 299
252 253 254 256 258 260 262 263 265 266 267 268 269 269 270 271 273 274 274 274 274 276 278 280 280 281 281 282 282 282 282 282 282 282 283 284 285 285 285 284 284 282 279 275 271 269 268 266 263 260 259 260 259 257 258 261 263 267 269 270 266 261 258 259 260 259 260 264 270 273 275 274 274 277 280 280 281 283 287 290 294 296 297 297 297
255 257 258 259 261 263 265 266 267 268 268 269 270 270 271 273 274 275 275 275 275 276 278 279 280 281 282 283 282 282 283 283 284 285 287 289 291 292 292 293 293 289 282 273 268 266 264 260 256 254 254 255 254 254 257 261 266 269 271 270 267 264 261 260 259 258 260 267 272 273 272 272 273 277 279 278 280 283 286 290 293 294 295 295 295
257 259 261 262 263 265 266 268 269 270 271 271 271 272 272 274 275 276 276 276 276 277 277 278 280 282 282 281 281 282 283 285 286 287 290 294 296 297 299 299 298 293 283 271 264 263 259 254 250 249 250 251 251 252 258 263 267 271 272 268 264 262 262 262 262 263 266 270 272 270 270 271 273 276 276 276 279 283 286 289 291 292 292 293 293
257 259 261 263 265 267 269 271 273 273 273 272 272 273 274 275 276 277 277 277 277 277 278 279 280 281 281 280 281 282 284 285 287 288 291 296 297 299 303 304 301 298 287 268 258 258 255 249 245 244 245 249 252 253 255 257 259 265 271 269 264 264 264 262 262 266 267 268 269 270 270 270 271 274 274 275 278 282 285 288 289 289 289 290 292
258 261 263 265 268 270 271 272 273 273 273 274 274 275 276 276 277 277 277 277 277 277 278 279 279 280 281 281 281 283 284 286 287 289 293 297 299 302 307 305 300 299 295 272 257 257 252 242 239 242 243 247 250 251 253 255 257 260 264 266 270 273 267 258 257 263 267 266 267 268 267 267 270 272 272 273 277 281 283 285 286 286 286 288 289
261 264 266 268 269 270 271 271 271 272 274 274 275 276 276 276 277 277 277 277 278 278 278 279 279 280 281 282 283 284 286 287 289 293 298 303 305 308 313 312 302 300 306 286 261 257 254 243 239 241 240 240 244 250 254 257 257 256 257 262 269 274 268 258 255 261 266 266 264 263 263 266 269 269 269 272 277 280 281 283 283 283 284 285 286
263 265 266 267 268 269 270 272 273 274 275 275 274 275 275 275 276 277 277 278 278 278 278 278 279 280 281 283 285 287 289 290 293 297 302 307 309 311 313 309 283 239 241 233 222 229 240 237 231 232 232 236 247 258 262 262 259 257 257 261 264 267 267 263 260 262 265 264 262 262 264 266 266 265 267 271 275 277 278 280 280 280 280 281 283
262 264 266 267 269 270 271 273 274 274 274 274 273 274 274 275 276 276 277 277 277 276 276 277 278 280 283 285 287 290 292 294 295 298 301 305 307 308 308 299 275 246 232 224 220 224 232 232 230 233 238 246 256 265 267 265 262 259 259 260 259 260 262 263 262 262 263 262 260 261 263 263 261 262 266 270 273 274 276 277 277 277 277 278 281
263 265 267 268 270 271 272 273 274 274 274 274 273 273 274 276 276 276 275 274 274 274 275 277 278 281 284 287 288 290 292 294 295 297 299 301 303 303 302 296 284 272 266 260 249 243 243 243 245 249 254 257 261 262 261 261 262 262 262 260 258 257 258 258 259 260 260 258 258 260 260 258 257 261 265 268 271 272 274 274 274 274 274 276 279
263 264 267 270 272 273 274 276 277 277 276 274 273 272 273 275 275 275 274 274 274 275 276 278 280 282 284 286 287 288 290 291 293 294 295 296 297 299 299 297 291 284 280 275 268 261 257 256 257 260 261 259 255 251 253 260 265 264 261 258 255 255 256 256 256 256 255 256 258 258 255 253 256 260 264 267 269 271 272 272 272 272 272 274 277
262 265 270 273 275 275 276 277 277 276 276 275 274 273 273 274 274 273 274 274 275 277 278 279 281 282 283 284 284 285 286 288 289 291 291 291 290 292 293 293 290 287 283 280 274 267 261 259 259 260 258 257 255 254 257 260 260 257 254 253 254 256 257 256 253 252 253 255 257 254 250 251 256 260 264 266 268 269 270 270 270 270 271 273 276
264 269 273 274 274 275 276 276 275 274 274 274 274 274 274 274 273 273 274 275 276 277 278 279 280 280 280 280 281 282 284 286 286 287 287 286 285 285 286 285 284 283 282 281 277 271 266 263 260 257 255 255 257 257 256 255 254 254 255 255 256 258 257 254 251 251 253 255 254 249 247 251 257 261 264 265 267 268 268 268 267 268 269 271 275
267 269 270 270 272 273 274 275 275 274 273 273 274 274 274 274 274 274 274 275 275 276 276 277 277 278 278 278 279 280 281 282 283 282 282 282 282 281 280 279 277 277 276 276 275 273 270 267 263 260 258 257 256 255 256 257 257 258 259 259 260 259 255 251 249 251 253 252 248 245 248 254 258 261 262 264 265 266 266 265 265 266 267 270 273
266 266 267 268 270 272 273 273 273 273 272 272 273 273 273 273 273 273 273 273 273 274 276 276 277 278 277 277 277 278 279 279 279 278 278 278 277 276 274 271 269 268 268 267 267 266 267 268 268 267 266 265 264 264 264 263 263 264 263 263 260 257 253 250 250 252 253 252 249 249 252 256 258 259 261 263 264 263 263 263 263 264 265 268 271
264 264 266 268 269 270 271 271 271 271 272 272 272 273 273 272 272 271 271 272 273 274 275 277 279 279 279 279 278 278 279 278 277 277 276 274 272 270 268 265 262 261 262 262 261 262 265 268 269 269 269 269 270 269 268 266 264 263 263 262 260 258 257 256 257 257 256 254 253 253 255 255 256 258 260 262 262 262 262 261 261 261 263 266 269
262 264 265 266 267 268 269 269 270 270 271 271 271 272 272 271 271 271 271 271 272 273 274 276 277 277 278 279 279 279 279 278 278 277 275 271 266 263 262 262 261 260 259 258 259 261 263 264 265 265 266 266 266 266 266 265 263 262 262 263 264 265 265 263 261 258 256 254 254 253 253 253 254 257 259 260 261 261 260 259 259 259 261 264 267
263 264 265 266 267 267 268 269 269 269 270 270 270 270 271 271 271 271 271 272 272 272 272 273 273 274 274 276 276 276 277 278 279 278 274 268 261 258 258 260 262 262 261 258 257 258 259 259 259 259 260 260 260 262 263 263 263 264 264 265 265 265 264 262 259 256 255 254 253 252 251 251 254 257 258 259 259 259 258 258 258 258 260 263 266
Height
5908 5909 5910 5911 5912 5913 5914 5914 5916 5916 5918 5918 5920 5920 5920 5922 5922 5924 5925 5926 5927 5928 5929 5929 5930 5930 5930 5930 5930 5930 5930 5930 5930 5930 5931 5932 5932 5932 5932 5932 5932 5932 5932 5932 5932 5932 5931 5930 5930 5930 5928 5928 5926 5926 5925 5924 5924 5923 5922 5921 5920 5919 5918 5917 5916 5916 5915 5914 5912 5911 5909 5907 5905 5903 5901 5900 5898 5896 5895 5894 5892 5890 5889 5887 5886
5906 5907 5908 5909 5910 5910 5912 5912 5913 5914 5915 5916 5916 5918 5918 5920 5920 5922 5922 5924 5924 5926 5926 5927 5928 5928 5928 5928 5928 5928 5928 5928 5928 5928 5929 5930 5930 5930 5930 5930 5930 5930 5930 5930 5930 5931 5930 5930 5930 5928 5928 5926 5926 5924 5924 5923 5922 5922 5921 5920 5920 5918 5916 5916 5914 5914 5912 5912 5911 5910 5908 5906 5904 5902 5900 5898 5896 5894 5893 5892 5890 5888 5886 5884 5882
5904 5904 5906 5907 5908 5908 5909 5910 5911 5912 5912 5914 5914 5914 5916 5916 5918 5919 5920 5921 5922 5923 5924 5924 5925 5926 5926 5926 5926 5926 5926 5926 5926 5926 5926 5927 5928 5928 5928 5928 5929 5929 5929 5929 5930 5930 5930 5929 5928 5927 5926 5925 5924 5923 5922 5920 5920 5919 5918 5918 5918 5917 5916 5914 5912 5912 5910 5909 5908 5908 5906 5904 5902 5900 5898 5896 5894 5892 5890 5889 5888 5886 5884 5882 5879
5901 5902 5904 5905 5906 5906 5908 5908 5909 5910 5910 5912 5912 5912 5912 5913 5914 5916 5917 5918 5920 5920 5921 5922 5922 5923 5924 5924 5924 5924 5923 5923 5924 5924 5924 5924 5925 5926 5926 5926 5926 5927 5928 5928 5928 5928 5928 5928 5927 5926 5924 5924 5923 5922 5920 5918 5918 5917 5916 5916 5916 5915 5914 5912 5911 5910 5908 5907 5906 5904 5903 5902 5900 5898 5896 5894 5892 5890 5888 5886 5885 5883 5880 5878 5876
5898 5900 5901 5902 5902 5904 5905 5906 5906 5908 5908 5908 5909 5909 5910 5910 5912 5912 5914 5916 5916 5918 5918 5918 5920 5920 5920 5921 5921 5921 5920 5920 5920 5921 5922 5922 5922 5924 5924 5924 5924 5925 5926 5926 5926 5927 5927 5926 5926 5924 5923 5922 5921 5920 5918 5916 5916 5914 5914 5914 5913 5912 5911 5910 5908 5907 5906 5904 5903 5902 5900 5899 5897 5896 5894 5892 5890 5888 5886 5884 5882 5880 5878 5876 5873
5896 5898 5898 5898 5900 5902 5902 5904 5904 5905 5905 5906 5906 5906 5907 5908 5908 5910 5911 5912 5914 5914 5915 5916 5916 5917 5917 5918 5918 5918 5918 5918 5918 5918 5918 5919 5920 5920 5921 5922 5922 5923 5924 5924 5924 5925 5925 5925 5924 5923 5922 5920 5919 5918 5916 5914 5913 5912 5912 5911 5910 5910 5908 5907 5906 5904 5902 5902 5900 5899 5898 5896 5894 5892 5891 5890 5888 5885 5883 5881 5879 5877 5875 5872 5870
5894 5896 5896 5896 5898 5900 5900 5901 5902 5902 5902 5903 5903 5904 5904 5906 5906 5907 5908 5909 5910 5911 5912 5912 5913 5914 5914 5914 5914 5914 5914 5915 5915 5916 5916 5917 5918 5918 5918 5919 5920 5920 5922 5922 5922 5922 5923 5923 5922 5921 5920 5918 5917 5916 5914 5912 5912 5910 5910 5909 5908 5907 5906 5904 5903 5902 5900 5898 5897 5896 5894 5892 5891 5890 5888 5887 5885 5883 5880 5878 5876 5874 5872 5869 5866
5892 5893 5894 5895 5896 5898 5898 5898 5898 5899 5900 5900 5901 5902 5902 5903 5904 5904 5905 5906 5907 5908 5908 5909 5910 5910 5910 5910 5911 5911 5912 5912 5912 5913 5914 5914 5915 5916 5916 5916 5917 5918 5918 5919 5920 5920 5920 5920 5920 5919 5918 5916 5916 5914 5913 5912 5910 5910 5908 5908 5906 5905 5904 5902 5900 5899 5898 5896 5894 5892 5891 5890 5888 5886 5884 5884 5882 5880 5878 5876 5872 5870 5868 5866 5863
5890 5890 5892 5894 5895 5896 5896 5896 5896 5897 5898 5898 5898 5899 5900 5900 5901 5902 5902 5903 5904 5904 5906 5906 5906 5906 5907 5908 5908 5908 5909 5910 5910 5910 5911 5912 5912 5913 5914 5914 5914 5915 5916 5916 5916 5917 5918 5918 5918 5916 5916 5914 5914 5912 5912 5910 5909 5908 5907 5906 5904 5903 5902 5900 5898 5896 5895 5893 5892 5890 5888 5886 5884 5883 5882 5880 5878 5876 5874 5872 5870 5868 5865 5862 5860
5886 5888 5890 5892 5892 5892 5892 5894 5894 5896 5896 5896 5896 5897 5898 5898 5898 5899 5900 5900 5901 5902 5902 5903 5904 5904 5904 5906 5906 5906 5907 5908 5908 5908 5908 5909 5910 5910 5910 5911 5912 5912 5913 5914 5914 5914 5914 5914 5914 5914 5913 5912 5911 5910 5910 5908 5908 5906 5905 5904 5902 5901 5900 5898 5896 5894 5893 5891 5889 5887 5885 5884 5882 5880 5878 5876 5874 5872 5871 5868 5866 5864 5862 5859 5856
5884 5885 5887 5888 5889 5889 5890 5892 5892 5894 5894 5894 5894 5895 5896 5896 5896 5897 5898 5898 5899 5900 5900 5901 5902 5902 5902 5904 5904 5904 5905 5906 5905 5905 5906 5906 5907 5907 5908 5908 5908 5909 5910 5910 5910 5911 5911 5912 5911 5910 5910 5910 5908 5908 5907 5906 5905 5904 5902 5902 5900 5898 5897 5896 5894 5892 5891 5889 5887 5885 5882 5880 5878 5877 5875 5873 5871 5869 5867 5865 5862 5860 5858 5856 5852
5880 5882 5884 5884 5886 5886 5888 5889 5890 5892 5892 5892 5892 5893 5894 5894 5895 5896 5896 5897 5897 5898 5898 5900 5900 5900 5901 5902 5902 5902 5903 5903 5903 5902 5902 5903 5904 5904 5904 5905 5905 5906 5906 5907 5907 5907 5908 5908 5908 5908 5907 5906 5906 5904 5904 5904 5902 5901 5900 5899 5898 5896 5894 5893 5892 5890 5888 5887 5885 5882 5880 5878 5876 5874 5872 5870 5868 5866 5864 5862 5860 5857 5854 5852 5849
5877 5878 5880 5880 5882 5883 5884 5886 5888 5888 5890 5890 5890 5890 5892 5892 5894 5894 5894 5894 5896 5896 5897 5898 5898 5898 5899 5900 5900 5900 5900 5900 5900 5900 5900 5900 5900 5900 5901 5902 5902 5902 5902 5903 5903 5904 5904 5904 5904 5904 5904 5903 5902 5902 5901 5900 5899 5898 5897 5896 5894 5893 5892 5890 5888 5887 5886 5884 5882 5880 5878 5876 5874 5872 5869 5866 5864 5862 5860 5858 5856 5854 5850 5848 5846
5874 5875 5876 5877 5878 5879 5880 5882 5884 5886 5886 5886 5887 5888 5889 5890 5891 5892 5892 5892 5894 5894 5895 5896 5896 5897 5897 5898 5898 5898 5898 5898 5898 5898 5898 5898 5898 5898 5898 5898 5898 5898 5898 5899 5899 5900 5900 5901 5900 5900 5900 5899 5899 5898 5898 5896 5896 5895 5894 5893 5892 5890 5888 5888 5886 5884 5883 5882 5880 5878 5875 5873 5870 5868 5866 5864 5862 5859 5857 5854 5852 5849 5846 5844 5841
5870 5872 5873 5874 5875 5876 5878 5880 5880 5882 5882 5883 5884 5885 5886 5887 5888 5888 5890 5890 5890 5892 5892 5892 5894 5894 5894 5895 5896 5896 5896 5896 5896 5896 5895 5895 5894 5894 5894 5894 5894 5894 5894 5894 5894 5895 5896 5896 5896 5896 5896 5896 5895 5894 5894 5893 5892 5892 5891 5890 5888 5887 5886 5884 5882 5881 5880 5878 5876 5874 5872 5870 5868 5865 5863 5861 5858 5856 5853 5850 5848 5844 5842 5840 5836
5868 5870 5870 5872 5872 5874 5875 5876 5877 5878 5879 5880 5881 5882 5883 5884 5885 5886 5886 5886 5888 5888 5889 5890 5890 5891 5892 5892 5892 5893 5893 5893 5893 5893 5892 5892 5891 5890 5890 5890 5890 5890 5890 5890 5890 5890 5892 5892 5891 5891 5891 5891 5892 5890 5889 5889 5889 5888 5888 5886 5884 5884 5882 5880 5878 5877 5876 5874 5873 5871 5869 5866 5864 5862 5860 5857 5854 5852 5849 5846 5844 5840 5838 5836 5832
5866 5867 5868 5869 5870 5871 5872 5873 5874 5874 5876 5876 5878 5879 5880 5881 5881 5882 5882 5883 5884 5885 5886 5886 5886 5887 5888 5888 5888 5890 5890 5890 5890 5890 5890 5888 5888 5886 5886 5886 5886 5885 5886 5886 5886 5886 5887 5887 5886 5886 5886 5886 5887 5886 5885 5884 5884 5884 5884 5882 5880 5879 5878 5876 5875 5874 5872 5870 5869 5867 5864 5862 5860 5858 5856 5853 5850 5848 5844 5842 5839 5836 5834 5831 5828
5864 5865 5866 5866 5868 5868 5868 5870 5870 5872 5872 5874 5875 5876 5876 5878 5878 5878 5879 5880 5880 5882 5882 5882 5882 5883 5884 5884 5884 5884 5885 5885 5886 5886 5886 5885 5884 5883 5882 5882 5880 5880 5881 5882 5882 5881 5881 5881 5880 5880 5881 5882 5882 5882 5880 5880 5880 5880 5879 5878 5876 5875 5874 5872 5871 5870 5868 5866 5865 5863 5860 5858 5856 5854 5852 5849 5846 5844 5840 5837 5834 5832 5829 5826 5822
5862 5862 5863 5864 5864 5864 5866 5866 5868 5868 5870 5871 5872 5872 5873 5874 5874 5874 5875 5876 5876 5877 5877 5878 5878 5879 5880 5880 5879 5879 5880 5880 5880 5881 5882 5880 5880 5878 5877 5876 5876 5876 5876 5876 5876 5876 5876 5875 5875 5875 5876 5876 5877 5877 5876 5874 5874 5875 5874 5874 5873 5872 5869 5866 5866 5867 5865 5862 5860 5858 5856 5854 5852 5850 5847 5845 5842 5840 5836 5833 5830 5828 5824 5822 5818
5858 5858 5859 5860 5861 5862 5862 5864 5865 5866 5867 5868 5868 5868 5869 5870 5870 5870 5870 5871 5872 5872 5872 5873 5874 5874 5875 5874 5874 5875 5875 5874 5875 5876 5876 5876 5875 5874 5872 5871 5870 5870 5870 5870 5870 5870 5869 5868 5869 5870 5870 5870 5872 5872 5870 5868 5870 5870 5870 5870 5868 5867 5864 5862 5861 5862 5860 5858 5856 5854 5852 5850 5847 5845 5843 5840 5838 5835 5832 5828 5826 5823 5820 5817 5814
5854 5854 5856 5856 5858 5858 5860 5860 5862 5862 5863 5864 5864 5864 5866 5866 5866 5866 5866 5866 5866 5868 5868 5868 5869 5870 5870 5870 5871 5872 5872 5870 5870 5870 5870 5870 5870 5868 5866 5866 5865 5864 5862 5864 5864 5863 5863 5864 5864 5864 5864 5864 5864 5865 5864 5862 5863 5864 5864 5865 5864 5862 5860 5858 5856 5856 5855 5854 5851 5849 5847 5845 5842 5840 5838 5836 5833 5830 5828 5824 5821 5819 5816 5812 5810
5850 5850 5852 5853 5854 5855 5856 5857 5858 5859 5859 5860 5860 5862 5862 5862 5862 5862 5862 5862 5863 5863 5864 5864 5864 5865 5866 5866 5866 5867 5867 5866 5864 5864 5865 5864 5864 5862 5861 5860 5859 5858 5856 5858 5858 5858 5858 5858 5858 5858 5858 5856 5857 5858 5858 5856 5856 5858 5859 5859 5858 5856 5854 5852 5851 5850 5850 5848 5847 5845 5842 5840 5838 5836 5834 5832 5828 5826 5823 5820 5817 5814 5812 5809 5806
5846 5847 5848 5850 5850 5851 5852 5852 5854 5854 5854 5856 5858 5858 5858 5858 5858 5858 5858 5858 5858 5858 5859 5860 5860 5860 5861 5861 5862 5862 5860 5860 5859 5860 5860 5860 5858 5857 5856 5854 5852 5851 5850 5850 5852 5852 5852 5852 5852 5852 5852 5850 5849 5850 5850 5850 5850 5852 5852 5852 5852 5850 5849 5846 5846 5846 5844 5842 5842 5840 5838 5836 5834 5832 5830 5826 5824 5822 5818 5816 5813 5810 5808 5806 5802
5842 5844 5845 5846 5846 5847 5848 5848 5850 5850 5850 5850 5852 5854 5854 5854 5854 5854 5854 5854 5854 5854 5854 5854 5854 5854 5856 5856 5856 5855 5854 5853 5853 5853 5854 5853 5852 5851 5850 5850 5848 5845 5844 5844 5844 5844 5845 5845 5844 5845 5845 5842 5842 5842 5843 5843 5844 5844 5845 5846 5845 5844 5842 5840 5840 5840 5839 5838 5836 5834 5833 5831 5829 5827 5825 5822 5820 5817 5814 5811 5809 5806 5804 5802 5798
5839 5840 5841 5842 5842 5842 5843 5844 5845 5845 5845 5846 5846 5848 5849 5849 5850 5850 5850 5849 5849 5849 5849 5848 5848 5849 5849 5849 5849 5848 5847 5846 5846 5846 5846 5845 5844 5844 5844 5844 5842 5840 5838 5838 5837 5836 5836 5836 5837 5838 5837 5835 5834 5834 5836 5838 5838 5838 5838 5838 5838 5837 5836 5835 5834 5834 5832 5832 5830 5828 5827 5826 5824 5822 5820 5817 5815 5812 5810 5807 5804 5802 5800 5797 5794
5834 5836 5836 5838 5838 5838 5839 5840 5840 5841 5841 5842 5842 5843 5844 5844 5844 5844 5844 5844 5844 5843 5843 5842 5842 5842 5842 5842 5842 5840 5840 5839 5838 5838 5837 5837 5837 5837 5837 5836 5835 5833 5832 5832 5829 5826 5825 5826 5828 5830 5829 5827 5826 5826 5829 5831 5832 5830 5830 5830 5830 5830 5830 5828 5828 5827 5826 5825 5824 5822 5822 5820 5819 5817 5814 5812 5810 5808 5805 5802 5800 5798 5796 5793 5790
5830 5831 5832 5833 5834 5834 5835 5836 5836 5837 5837 5838 5838 5838 5838 5838 5839 5838 5838 5838 5838 5837 5837 5836 5836 5836 5835 5834 5834 5833 5832 5832 5831 5829 5828 5829 5830 5829 5828 5828 5826 5825 5824 5822 5820 5817 5815 5816 5818 5821 5820 5818 5816 5818 5820 5822 5822 5824 5824 5824 5823 5823 5822 5821 5820 5820 5820 5818 5817 5816 5816 5815 5814 5812 5810 5808 5806 5803 5800 5798 5796 5794 5792 5789 5786
5824 5826 5827 5828 5829 5830 5830 5831 5832 5832 5832 5833 5833 5834 5834 5834 5833 5832 5832 5832 5831 5830 5830 5830 5830 5829 5828 5827 5826 5826 5825 5825 5824 5822 5820 5820 5821 5820 5818 5818 5818 5817 5815 5812 5810 5808 5807 5807 5808 5810 5809 5807 5806 5808 5811 5814 5816 5816 5816 5816 5814 5814 5814 5814 5814 5813 5812 5812 5810 5810 5810 5809 5808 5806 5804 5802 5800 5798 5796 5794 5792 5789 5787 5784 5782
5820 5821 5822 5823 5824 5824 5825 5826 5826 5826 5827 5828 5828 5828 5827 5826 5826 5826 5826 5824 5824 5824 5823 5822 5822 5822 5820 5820 5819 5818 5818 5818 5818 5816 5813 5812 5812 5811 5810 5810 5810 5808 5807 5804 5800 5797 5798 5799 5798 5798 5798 5798 5798 5799 5802 5804 5808 5808 5808 5806 5806 5806 5806 5807 5806 5806 5806 5805 5804 5804 5804 5803 5802 5800 5798 5797 5796 5794 5791 5789 5786 5784 5782 5780 5778
5814 5816 5816 5818 5818 5819 5820 5820 5820 5820 5821 5821 5821 5821 5820 5819 5819 5818 5818 5818 5817 5816 5816 5816 5815 5814 5812 5812 5812 5810 5810 5812 5810 5808 5804 5803 5803 5803 5804 5804 5802 5799 5798 5796 5791 5785 5784 5788 5789 5789 5790 5790 5791 5792 5793 5796 5798 5799 5798 5797 5797 5798 5800 5799 5798 5798 5798 5798 5797 5797 5798 5796 5796 5794 5793 5792 5790 5788 5786 5784 5782 5780 5778 5776 5774
5809 5810 5811 5812 5812 5813 5814 5814 5814 5814 5814 5814 5814 5814 5813 5812 5812 5812 5812 5811 5810 5810 5808 5808 5808 5806 5804 5804 5805 5804 5803 5803 5802 5800 5796 5794 5793 5794 5796 5796 5794 5790 5788 5786 5780 5773 5771 5775 5778 5780 5782 5782 5784 5784 5786 5787 5788 5789 5790 5790 5791 5791 5790 5790 5790 5792 5792 5792 5790 5790 5790 5790 5790 5788 5787 5786 5784 5783 5781 5779 5777 5774 5772 5771 5769
5803 5804 5805 5806 5806 5806 5807 5807 5807 5807 5807 5807 5807 5807 5806 5806 5806 5806 5805 5804 5803 5802 5802 5800 5800 5798 5797 5796 5797 5798 5796 5795 5794 5791 5788 5786 5785 5786 5786 5786 5785 5783 5780 5775 5770 5763 5760 5764 5768 5770 5772 5773 5774 5776 5778 5779 5780 5780 5782 5782 5782 5782 5782 5782 5783 5784 5784 5784 5784 5784 5784 5784 5783 5782 5782 5780 5779 5778 5776 5774 5772 5770 5768 5766 5765
5796 5798 5798 5799 5800 5800 5800 5800 5800 5800 5800 5800 5800 5800 5800 5799 5799 5798 5798 5796 5795 5794 5794 5794 5792 5791 5790 5788 5788 5788 5789 5788 5784 5782 5780 5778 5777 5776 5775 5774 5773 5772 5768 5762 5758 5754 5752 5754 5758 5760 5761 5763 5765 5767 5769 5770 5770 5771 5772 5771 5770 5772 5772 5772 5774 5777 5778 5776 5776 5777 5777 5776 5776 5776 5776 5775 5774 5772 5770 5768 5766 5765 5764 5762 5760
5790 5790 5792 5792 5792 5793 5794 5794 5794 5794 5794 5794 5794 5793 5792 5792 5791 5790 5790 5788 5788 5787 5786 5786 5784 5783 5781 5780 5779 5778 5778 5778 5775 5772 5770 5770 5768 5766 5763 5760 5759 5758 5755 5750 5745 5742 5743 5746 5750 5752 5752 5754 5756 5758 5758 5759 5760 5762 5764 5764 5764 5763 5764 5764 5766 5769 5770 5770 5769 5770 5770 5770 5770 5770 5770 5770 5768 5767 5765 5763 5762 5760 5758 5758 5756
5783 5784 5784 5786 5786 5786 5786 5786 5786 5786 5786 5786 5786 5786 5785 5784 5784 5783 5782 5781 5780 5780 5778 5778 5776 5774 5772 5772 5770 5768 5768 5768 5765 5761 5759 5759 5758 5754 5750 5746 5746 5745 5742 5736 5730 5726 5728 5732 5737 5740 5744 5747 5748 5748 5749 5750 5750 5753 5755 5756 5756 5756 5756 5758 5760 5760 5761 5762 5762 5763 5764 5764 5764 5765 5765 5764 5763 5762 5760 5758 5756 5755 5754 5752 5752
5776 5777 5778 5778 5779 5779 5780 5780 5780 5779 5778 5778 5778 5777 5776 5776 5776 5775 5774 5773 5773 5772 5772 5770 5769 5768 5765 5763 5761 5759 5758 5758 5756 5752 5748 5747 5746 5742 5738 5734 5731 5727 5722 5716 5711 5709 5712 5716 5721 5726 5732 5738 5740 5740 5742 5743 5744 5746 5746 5746 5747 5749 5750 5752 5752 5754 5754 5756 5756 5756 5757 5758 5759 5760 5759 5758 5758 5756 5754 5753 5752 5750 5749 5748 5747
5770 5770 5772 5772 5772 5772 5772 5772 5772 5772 5770 5770 5770 5770 5769 5768 5768 5766 5766 5765 5764 5765 5764 5762 5762 5760 5758 5756 5754 5752 5750 5750 5748 5744 5740 5738 5734 5730 5726 5721 5714 5708 5701 5696 5694 5696 5700 5704 5708 5715 5722 5728 5730 5732 5735 5738 5740 5740 5740 5739 5740 5743 5744 5744 5746 5748 5749 5750 5750 5750 5751 5752 5753 5753 5753 5752 5752 5750 5749 5748 5746 5746 5744 5744 5743
5764 5764 5765 5766 5766 5766 5766 5765 5764 5764 5763 5762 5762 5762 5762 5760 5760 5758 5758 5757 5757 5757 5756 5755 5754 5754 5752 5750 5748 5746 5744 5743 5740 5736 5734 5732 5728 5722 5719 5712 5702 5693 5684 5679 5682 5688 5692 5694 5700 5708 5714 5718 5721 5724 5728 5732 5732 5733 5734 5734 5736 5737 5737 5738 5740 5742 5742 5742 5744 5744 5745 5746 5747 5747 5747 5747 5746 5746 5744 5742 5742 5741 5740 5740 5739
5757 5758 5758 5758 5758 5758 5758 5758 5757 5756 5756 5756 5755 5754 5754 5752 5752 5750 5750 5749 5749 5750 5749 5748 5746 5746 5744 5742 5740 5738 5736 5736 5732 5728 5726 5724 5720 5715 5712 5704 5694 5685 5679 5675 5678 5684 5686 5688 5694 5704 5709 5712 5714 5716 5720 5722 5724 5726 5728 5730 5730 5730 5730 5730 5732 5734 5734 5736 5737 5738 5739 5741 5741 5741 5742 5742 5742 5740 5739 5738 5738 5736 5736 5735 5735
5750 5750 5750 5750 5750 5750 5750 5750 5750 5749 5748 5748 5748 5747 5746 5745 5744 5743 5742 5742 5742 5742 5742 5740 5738 5738 5736 5734 5733 5731 5730 5728 5726 5721 5718 5716 5711 5706 5702 5695 5686 5681 5681 5682 5682 5683 5685 5689 5695 5700 5704 5706 5708 5710 5712 5714 5716 5719 5722 5722 5724 5724 5724 5724 5726 5728 5728 5729 5730 5732 5734 5736 5735 5735 5736 5736 5736 5735 5734 5734 5733 5732 5732 5731 5730
5742 5742 5743 5743 5743 5743 5742 5742 5742 5741 5740 5740 5740 5739 5738 5738 5737 5736 5736 5736 5735 5734 5734 5733 5732 5730 5729 5727 5726 5724 5722 5721 5719 5716 5714 5712 5707 5702 5699 5696 5690 5684 5682 5685 5686 5686 5686 5690 5694 5696 5699 5702 5703 5705 5707 5708 5710 5712 5714 5716 5718 5718 5718 5718 5720 5722 5722 5723 5724 5726 5728 5730 5730 5730 5730 5731 5730 5730 5729 5728 5728 5728 5727 5727 5726
5734 5735 5735 5735 5736 5736 5735 5734 5734 5733 5732 5732 5732 5732 5731 5730 5730 5730 5729 5728 5728 5727 5726 5726 5726 5724 5722 5720 5718 5717 5716 5714 5713 5711 5710 5708 5704 5700 5698 5698 5696 5690 5686 5686 5688 5688 5688 5690 5694 5695 5697 5699 5700 5700 5702 5702 5704 5706 5708 5710 5711 5712 5712 5713 5714 5716 5716 5718 5720 5722 5724 5724 5724 5724 5726 5726 5726 5724 5724 5724 5724 5723 5722 5723 5722
5726 5727 5728 5728 5728 5728 5727 5726 5726 5726 5724 5724 5724 5724 5724 5723 5722 5722 5722 5721 5720 5720 5720 5719 5718 5718 5716 5714 5712 5710 5710 5708 5707 5706 5705 5704 5702 5698 5696 5696 5696 5694 5691 5690 5690 5690 5690 5692 5693 5694 5694 5695 5696 5696 5696 5697 5698 5700 5702 5704 5705 5706 5706 5708 5708 5710 5712 5714 5716 5716 5717 5718 5718 5719 5720 5720 5720 5720 5720 5720 5719 5718 5718 5718 5718
5719 5720 5720 5720 5720 5720 5719 5718 5718 5717 5716 5716 5716 5716 5716 5716 5715 5714 5714 5713 5713 5712 5712 5712 5712 5712 5710 5708 5706 5705 5704 5702 5701 5700 5700 5699 5698 5696 5694 5692 5692 5692 5690 5690 5688 5688 5688 5688 5689 5689 5690 5690 5691 5692 5692 5694 5694 5696 5697 5698 5699 5700 5701 5702 5703 5704 5706 5708 5710 5710 5712 5712 5713 5714 5714 5715 5715 5714 5715 5715 5714 5714 5714 5714 5714
5712 5712 5712 5712 5712 5712 5710 5710 5710 5709 5708 5708 5708 5708 5708 5708 5707 5706 5706 5706 5705 5705 5705 5705 5705 5704 5704 5702 5701 5700 5698 5698 5696 5695 5694 5694 5693 5692 5690 5690 5688 5688 5686 5686 5686 5685 5684 5684 5684 5684 5686 5686 5686 5688 5688 5690 5690 5692 5692 5693 5694 5695 5696 5696 5698 5700 5701 5702 5704 5705 5706 5707 5708 5708 5710 5710 5710 5710 5710 5710 5710 5710 5710 5710 5710
5704 5705 5705 5704 5704 5704 5702 5702 5702 5701 5701 5701 5700 5700 5700 5700 5699 5698 5698 5698 5698 5698 5698 5698 5698 5697 5697 5696 5696 5694 5694 5692 5692 5691 5690 5689 5688 5688 5687 5686 5684 5684 5684 5682 5682 5682 5681 5680 5680 5680 5681 5682 5683 5684 5684 5686 5686 5688 5688 5688 5688 5690 5690 5691 5692 5694 5696 5696 5698 5700 5701 5702 5703 5704 5704 5704 5704 5705 5706 5706 5706 5706 5705 5706 5706
5698 5697 5697 5696 5696 5696 5695 5694 5694 5694 5694 5694 5694 5693 5693 5692 5692 5692 5691 5690 5690 5690 5690 5690 5690 5690 5690 5690 5690 5688 5688 5688 5687 5687 5686 5685 5684 5684 5683 5682 5680 5680 5680 5678 5678 5678 5678 5678 5678 5678 5678 5679 5680 5680 5680 5682 5682 5682 5682 5683 5684 5684 5685 5686 5688 5688 5690 5692 5693 5694 5696 5697 5698 5698 5699 5699 5700 5700 5700 5700 5700 5700 5701 5701 5702
5690 5690 5689 5688 5688 5688 5688 5687 5687 5686 5686 5686 5686 5686 5686 5686 5686 5685 5684 5684 5684 5684 5684 5684 5684 5683 5682 5682 5682 5682 5682 5682 5682 5682 5682 5682 5680 5680 5679 5678 5676 5676 5675 5674 5674 5674 5674 5674 5674 5674 5674 5675 5676 5676 5676 5676 5677 5678 5678 5678 5678 5679 5680 5682 5682 5684 5685 5686 5688 5690 5691 5692 5692 5692 5694 5694 5694 5695 5696 5696 5696 5696 5696 5697 5698
5682 5682 5682 5682 5682 5681 5681 5680 5680 5680 5680 5680 5680 5680 5680 5680 5679 5679 5678 5678 5678 5678 5678 5677 5676 5676 5676 5676 5676 5676 5676 5676 5676 5676 5677 5676 5676 5676 5674 5674 5672 5672 5671 5670 5670 5670 5670 5670 5670 5670 5671 5671 5672 5672 5672 5672 5673 5674 5674 5674 5674 5675 5676 5677 5678 5679 5680 5682 5683 5684 5686 5686 5686 5688 5688 5689 5690 5690 5690 5691 5692 5692 5692 5692 5693
5676 5676 5676 5675 5675 5674 5674 5674 5674 5674 5674 5673 5673 5673 5674 5674 5673 5673 5673 5672 5672 5672 5672 5671 5670 5670 5670 5669 5669 5669 5669 5669 5669 5670 5670 5670 5670 5670 5670 5668 5668 5667 5667 5666 5666 5666 5666 5666 5666 5666 5667 5668 5668 5668 5668 5668 5669 5670 5670 5670 5670 5671 5672 5672 5673 5674 5676 5676 5678 5679 5680 5680 5682 5682 5683 5684 5684 5685 5686 5686 5686 5687 5688 5688 5688
5669 5668 5668 5668 5668 5668 5668 5668 5668 5668 5667 5667 5666 5666 5667 5667 5667 5666 5666 5666 5666 5666 5666 5665 5665 5664 5664 5664 5664 5662 5662 5662 5662 5662 5662 5662 5664 5664 5664 5664 5663 5663 5663 5662 5662 5662 5662 5662 5662 5663 5663 5664 5664 5664 5664 5665 5666 5666 5666 5666 5666 5666 5666 5668 5668 5670 5670 5672 5672 5674 5675 5676 5676 5677 5678 5678 5678 5680 5680 5681 5682 5682 5683 5684 5684